Location: Eaton Estates
(41.3089°N, 82.0057°W)
Time: 02:17:23
(UTC+00:00)

Cosmos 1437 - Pass Details

Date: 17 June 2021
Orbit: 333 x 334 km, 81.1° (Epoch: 02 August)

Event Time Altitude Azimuth Distance (km) Brightness Sun altitude
Rises 08:21:59 0° 335° (NNW) 2,143 6.7 -13.9°
Reaches altitude 10° 08:24:14 10° 317° (NW) 1,300 5.3 -13.6°
Enters shadow 08:26:23 20° 267° (W) 874 4.0 -13.4°
